AirNav   Phillips 66 Aviation Fuel
 
 966 users online  

I19 Greene County-Lewis A Jackson Regional Airport
Dayton, Ohio, USA

GOING TO DAYTON?


FAA INFORMATION EFFECTIVE 23 MAY 2019

Location

FAA Identifier: I19
Lat/Long: 39-41-26.6000N / 083-59-34.0000W
39-41.443333N / 083-59.566667W
39.6907222 / -83.9927778
(estimated)
Elevation: 948.5 ft. / 289.1 m (surveyed)
Variation: 05W (1995)
From city: 10 miles E of DAYTON, OH
Time zone: UTC -4 (UTC -5 during Standard Time)
Zip code: 45385

Airport Operations

Airport use: Open to the public
Activation date: 10/1968
Control tower: no
ARTCC: INDIANAPOLIS CENTER
FSS: DAYTON FLIGHT SERVICE STATION
NOTAMs facility: DAY (NOTAM-D service available)
Attendance: NOV MAR 0800-1800, APR-OCT 0800-2000
UNATNDD CHRISTMAS, NEW YEARS & THANKSGIVING DAYS.
Wind indicator: lighted
Segmented circle: no
Lights: ACTVT LIRL RY 07/25 & REIL RYS 07 & 25 - CTAF.
Beacon: white-green (lighted land airport)
Operates sunset to sunrise.

Airport Communications

CTAF/UNICOM: 122.7
WX AWOS-3: 118.525 (937-372-4668)
COLUMBUS APPROACH: 118.85
COLUMBUS DEPARTURE: 118.85
CLASS C: 118.85
IC: 118.85
WX AWOS-3PT at SGH (11 nm NE): 134.975
WX ASOS at MGY (12 nm SW): 118.375 (937-885-2171)
WX AWOS-3 at I66 (13 nm SE): 124.175 (937-382-1376)
WX ASOS at DAY (16 nm NW): PHONE 937-415-6819
WX AWOS-3 at I68 (18 nm SW): 120.55 (513-934-5500)
WX ASOS at ILN (18 nm SE): PHONE 937-383-7334

Nearby radio navigation aids

VOR radial/distance  VOR name  Freq  Var
SGHr222/11.1SPRINGFIELD VOR/DME113.2004W
MXQr335/18.0MIDWEST VOR/DME112.9004W
DQNr137/27.0DAYTON VOR/DME114.5001W
RODr181/35.9ROSEWOOD VORTAC117.5005W

 
NDB name  Hdg/Dist  Freq  Var  ID
CLARK COUNTY226/14.734104WCCJ -.-. -.-. .---
HOOK FIELD065/24.023904WHKF .... -.- ..-.
COURT HOUSE287/28.341406WCSS -.-. ... ...
CINCINNATI031/35.733504WLUK .-.. ..- -.-
SPORTYS020/38.324504WPWF .--. .-- ..-.

Airport Services

Fuel available: 100LL JET-A+
FUEL AVBL 24 HRS WITH CREDIT CARD CTC FBO - (937) 347-1302.
SNGL POINT FUELING AVBL DURG ATNDD HRS.
Parking: hangars and tiedowns
Airframe service: MAJOR
Powerplant service: MAJOR

Runway Information

Runway 7/25

Dimensions: 5004 x 75 ft. / 1525 x 23 m
Surface: asphalt, in excellent condition
Weight bearing capacity: 
Single wheel: 30.0
Runway edge lights: low intensity
Gradient: EAST
RUNWAY 7  RUNWAY 25
Latitude: 39-41.256342N39-41.629478N
Longitude: 084-00.042808W083-59.091673W
Elevation: 909.5 ft.948.5 ft.
Traffic pattern: leftleft
Runway heading: 068 magnetic, 063 true248 magnetic, 243 true
Markings: nonprecision, in good conditionnonprecision, in good condition
Visual slope indicator: 2-light PAPI on left (3.50 degrees glide path)2-light PAPI on left (3.50 degrees glide path)
RWY 25 PAPI UNUSBL BYD 6 DEGS L OF CNTRLN.
Runway end identifier lights: yesyes
Touchdown point: yes, no lightsyes, no lights
Obstructions: 16 ft. trees, 565 ft. from runway, 100 ft. right of centerline, 22:1 slope to clearnone
+10' TREES AND BRUSH, 0'-199' FM RY END, 195'-250' R OF CNTRLN.

Airport Ownership and Management from official FAA records

Ownership: Publicly-owned
Owner: GREENE COUNTY REGNL ARPT AUTH
140 N VALLEY RD,
XENIA, OH 45385
Phone 937-376-8107
Manager: DAVE KUSHNER
140 N VALLEY RD,
XENIA, OH 45385
Phone 937-376-8107

Airport Operational Statistics

Aircraft based on the field: 70
Single engine airplanes: 61
Multi engine airplanes: 8
Helicopters: 1
    
Aircraft operations: avg 117/day *
91% local general aviation
9% transient general aviation
* for 12-month period ending 22 September 2018

Additional Remarks

BIRDS & DEER ON & INVOF ARPT.
COLUMBUS APCH CTL TEL# 614-338-8537.
EXTENSIVE FLIGHT TRAINING ACT.

Instrument Procedures

NOTE: All procedures below are presented as PDF files. If you need a reader for these files, you should download the free Adobe Reader.

NOT FOR NAVIGATION. Please procure official charts for flight.
FAA instrument procedures published for use from 23 May 2019 at 0901Z to 20 June 2019 at 0900Z.

 
IAPs - Instrument Approach Procedures
RNAV (GPS) RWY 07   download (242KB)
RNAV (GPS) RWY 25   download (246KB)
NOTE: Special Take-Off Minimums/Departure Procedures apply   download (232KB)

Other nearby airports with instrument procedures:

KFFO - Wright-Patterson Air Force Base (8 nm N)
KSGH - Springfield-Beckley Municipal Airport (11 nm NE)
KMGY - Dayton-Wright Brothers Airport (12 nm SW)
I66 - Clinton Field Airport (13 nm SE)
KDAY - James M Cox Dayton International Airport (16 nm NW)
I68 - Warren County Airport/John Lane Field (18 nm SW)
KILN - Wilmington Air Park (18 nm SE)
 
Loc | Ops | Rwys | IFR | FBO | Links
Com | Nav | Svcs | Stats | Notes
Area around I19 (Greene County-Lewis A Jackson Regional Airport)
 
Road maps at: MapQuest Bing Google
 
Aerial photo
WARNING: Photo may not be current or correct
Aerial photo of I19 (Greene County-Lewis A Jackson Regional Airport)
Photo by Anthony Springer
Photo taken 13-Jun-2018
looking northeast.

Do you have a better or more recent aerial photo of Greene County-Lewis A Jackson Regional Airport that you would like to share? If so, please send us your photo.

 
Sectional chart

 
Airport distance calculator
Flying to Greene County-Lewis A Jackson Regional Airport? Find the distance to fly.

From to I19

Sunrise and sunset
Times for 22-May-2019
 Local
(UTC-4)
 Zulu
(UTC)
Morning civil twilight05:4609:46
Sunrise06:1710:17
Sunset20:4900:49
Evening civil twilight21:2001:20

Current date and time
Zulu (UTC)  23-May-2019 01:11:17
Local (UTC-4)  22-May-2019 21:11:17
 
METAR
KFFO 
8nm N 
222356Z 14004KT 7SM BKN055 BKN150 BKN220 21/20 A3004 RMK AO2A SLP173 P0002 60017 T02050200 10239 20202 58001
KSGH 
11nm NE 
230056Z AUTO 00000KT 4SM BR BKN055 OVC080 19/19 A3006 RMK AO2 SLP176 T01940194
KMGY 
12nm SW 
230053Z AUTO 17005KT 8SM BKN050 BKN080 22/20 A3004 RMK AO2 RAB20E29 SLP166 P0000 T02220200
KDAY 
16nm NW 
230056Z 17004KT 6SM BR BKN042 BKN055 21/18 A3005 RMK AO2 RAE13 SLP172 P0000 T02060183
KILN 
18nm SE 
230054Z AUTO 34004KT 9SM SCT060 BKN075 OVC090 22/21 A3005 RMK AO2 SLP171 T02220206
KI68 
18nm SW 
230055Z AUTO 00000KT 10SM BKN055 BKN065 BKN080 22/22 A3005 RMK AO1 T02150215
TAF
KFFO 
8nm N 
221900Z 2219/2401 19009KT 9999 BKN030 QNH2998INS TEMPO 2221/2224 22015G25KT -TSRA OVC030CB BECMG 2223/2224 20009KT 9999 FEW030 SCT100 QNH3000INS BECMG 2311/2312 23012G18KT 8000 -SHRA BKN030 QNH3005INS TEMPO 2314/2318 23015G25KT -TSRA OVC030CB BECMG 2320/2321 26012KT 9999 NSW SCT030 QNH3002INS TX29/2318Z TN20/2306Z
KDAY 
16nm NW 
222030Z 2221/2318 24010KT P6SM VCSH BKN045 TEMPO 2221/2224 -SHRA OVC035 FM230100 21008KT P6SM SCT045 BKN150 FM230300 19007KT P6SM SCT070 BKN200 FM230900 20009KT P6SM BKN060 FM231100 21011G22KT P6SM VCSH BKN050
KILN 
18nm SE 
221730Z 2218/2318 23014G22KT P6SM SCT050 BKN100 FM222100 21014G20KT P6SM VCTS BKN045CB FM230300 20008KT P6SM SCT050 BKN150 FM231100 22011KT P6SM BKN050 FM231400 23014G22KT P6SM BKN060
NOTAMs
Click for the latest NOTAMs
NOTAMs are issued by the DoD/FAA and will open in a separate window not controlled by AirNav.

 

 
 

FBO, Fuel Providers, and Aircraft Ground Support

  
 Business Name 
 
 Contact 
 
 Services / Description 
 
Fuel Prices
 
Comments
  
 MacAir Aviation
937-347-1302
[web site]
[email]
Aviation fuel, Aircraft ground handling, Aircraft parking (ramp or tiedown), Hangars, Hangar leasing / sales, Passenger terminal and lounge, ...
 
Certificated Pilot School   PSI FAA Test Center  
 
More info about MacAir Aviation
EPIC
100LL Jet A
AS $4.79 $3.49 
 Updated 09-May-2019
 
   11 read write
AS=Assisted/Self Service
Update Fuel Prices
 

Would you like to see your business listed on this page?

 If your business provides an interesting product or service to pilots, flight crews, aircraft, or users of the Greene County-Lewis A Jackson Regional Airport, you should consider listing it here.  To start the listing process, click on the button below
 
Add a business
 

Other Pages about Greene County-Lewis A Jackson Regional Airport

www.i19airport.com
 
Update a link
 
Copyright © AirNav, LLC. All rights reserved. Privacy Policy  Contact